Danville, VA

2:01 AM EDT on August 21, 2017 (GMT -0400)
Danville Regional

Weather History for KDAN - December, 2011

Change the Weather History Date:

Sunday, December 4, 2011

  Actual Average Record
Temperature  
Mean Temperature 43 °F 43 °F  
Max Temperature 58 °F 53 °F 74 °F (1970)
Min Temperature 27 °F 33 °F 16 °F (2000)
Degree Days  
Heating Degree Days 22 22  
Month to date heating degree days 90 87  
Since 1 July heating degree days 817 796  
Cooling Degree Days 0 0  
Month to date cooling degree days 0 0  
Year to date cooling degree days 1564 1439  
Moisture  
Dew Point 34 °F    
Average Humidity 72    
Maximum Humidity 100    
Minimum Humidity 43    
Precipitation  
Precipitation 0.00 in 0.12 in 1.87 in (1990)
Month to date precipitation 0.00 0.47  
Year to date precipitation 36.82 41.61  
Snow  
Snow 0.00 in - - ()
Month to date snowfall 0.0  
Since 1 July snowfall 0.0  
Snow Depth 0.00 in    
Sea Level Pressure  
Sea Level Pressure 30.46 in    
Wind  
Wind Speed 1 mph (SW)    
Max Wind Speed 7 mph    
Max Gust Speed 10 mph    
Visibility 9 miles    
Events      
T = Trace of Precipitation, MM = Missing Value Source: NWS Daily Summary

Daily Weather History Graph

Daily Weather History Graph

Search for Another Location

Airport or City:

Trip Planner

Search our weather history database for the weather conditions in past years. The results will help you decide how hot, cold, wet, or windy it might be!

Date:

Astronomy

Dec. 04, 2011 Rise Set
Actual Time 7:13 AM EST 5:01 PM EST
Civil Twilight 6:44 AM EST 5:30 PM EST
Nautical Twilight 6:12 AM EST 6:02 PM EST
Astronomical Twilight 5:41 AM EST 6:33 PM EST
Moon 1:24 PM EST (12/4) 1:44 AM EST (12/4)
Length of Visible Light 10h 45m
Length of Day
9h 48m
Waxing Gibbous, 71% of the Moon is Illuminated
Dec 4
Waxing Gibbous
Dec 10
Full
Dec 17
Last Quarter
Dec 24
New
Jan 1
First Quarter

Hourly Weather History & Observations

Time (EST) Temp. Dew Point Humidity Pressure Visibility Wind Dir Wind Speed Gust Speed Precip Events Conditions
12:53 AM 33.1 °F 30.9 °F 92% 30.54 in 10.0 mi Calm Calm - N/A   Clear
1:53 AM 30.9 °F 28.9 °F 92% 30.53 in 10.0 mi Calm Calm - N/A   Clear
2:53 AM 28.9 °F 28.0 °F 96% 30.52 in 9.0 mi Calm Calm - N/A   Clear
3:53 AM 28.9 °F 28.0 °F 96% 30.51 in 9.0 mi Calm Calm - N/A   Clear
4:53 AM 28.9 °F 27.0 °F 92% 30.51 in 8.0 mi Calm Calm - N/A   Clear
5:53 AM 28.0 °F 26.1 °F 92% 30.52 in 7.0 mi Calm Calm - N/A   Clear
6:53 AM 27.0 °F 26.1 °F 96% 30.53 in 7.0 mi Calm Calm - N/A   Clear
7:53 AM 28.0 °F 27.0 °F 96% 30.53 in 6.0 mi Calm Calm - N/A   Clear
8:53 AM 35.1 °F 32.0 °F 89% 30.53 in 8.0 mi Calm Calm - N/A   Clear
9:53 AM 43.0 °F 36.0 °F 76% 30.53 in 10.0 mi Calm Calm - N/A   Clear
10:53 AM 46.9 °F 37.9 °F 71% 30.51 in 10.0 mi SW 3.5 mph - N/A   Clear
11:53 AM 51.1 °F 39.0 °F 63% 30.47 in 10.0 mi Calm Calm - N/A   Clear
12:53 PM 53.1 °F 37.9 °F 57% 30.44 in 10.0 mi SW 4.6 mph - N/A   Clear
1:53 PM 55.0 °F 37.0 °F 51% 30.41 in 10.0 mi Calm Calm - N/A   Clear
2:53 PM 57.0 °F 36.0 °F 45% 30.39 in 10.0 mi Variable 4.6 mph - N/A   Mostly Cloudy
3:53 PM 57.0 °F 37.0 °F 47% 30.39 in 10.0 mi Calm Calm - N/A   Clear
4:53 PM 52.0 °F 39.0 °F 61% 30.38 in 10.0 mi Calm Calm - N/A   Clear
5:53 PM 46.9 °F 37.0 °F 68% 30.38 in 10.0 mi Calm Calm - N/A   Clear
6:53 PM 46.0 °F 37.0 °F 71% 30.40 in 10.0 mi Calm Calm - N/A   Clear
7:53 PM 44.1 °F 37.0 °F 76% 30.40 in 10.0 mi Calm Calm - N/A   Clear
8:53 PM 39.2 °F 35.6 °F 87% 30.40 in 10.0 mi Calm Calm - N/A   Partly Cloudy
9:53 PM 41.0 °F 37.0 °F 86% 30.40 in 10.0 mi Calm Calm - N/A   Mostly Cloudy
10:53 PM 39.9 °F 37.0 °F 89% 30.40 in 10.0 mi Calm Calm - N/A   Mostly Cloudy
11:53 PM 41.0 °F 37.0 °F 86% 30.38 in 10.0 mi Calm Calm - N/A   Mostly Cloudy